STARLINK-3054 (49167 NORAD) Tracking and Keplerian Element Data

This shows tracking and keplerian element data for the satellite.

Feedback or suggestion? Click here.




ElementValue
Catalog49167
NameSTARLINK-3054
Epoch Orbit367
Epoch Day300.58334491
Epoch Year2021
RAAN4.6618
Inclination70.0008
Eccentricity0.0003898
Argument of Perigee295.5093
Mean Anonmoly113.5808
Mean Motion15.69705394
Decay Rate0.00055879
L11 49167U 21082AP 21300.58334491 .00055879 00000-0 46755-3 0 9997
L22 49167 70.0008 4.6618 0003898 295.5093 113.5808 15.69705394 3671

Live tracking and technical data element details for STARLINK-3054 (NORAD 49167). STARLINK-3054 can be tracked NOW for your location showing map with azimuth and elevation plus other details from your city location.

Track the satellite on the map from your city or location and see movement details for azimuth, elevation, latitude, longitude, range, height, and movement on the map or in text.







IsCatalogInMostPopularTable: catalog: 49167, numindb: 11
Update: records affected: 1



GetName: 49167 STARLINK-3054

Hit Count: updated at: Thu, 28 Oct 2021 10:21:48 GMT